Lid_Strength_Index
5 6 6 7 7 8 7 8 8 7 7 6 7 7 7 7 8 8 8 7 9 11 10 10 10 10 9 8 9 7 7 7 8 9 9 9 11 10 11 10 13 14 15 15 13 16 17 6 8 13 8 6 6 7
4 5 6 6 7 7 7 8 8 7 7 6 7 7 7 7 7 7 9 7 7 11 10 8 8 7 7 7 8 6 7 7 7 9 9 10 11 10 11 14 8 14 11 14 14 13 7 5 7 5 5 6 6 6
2 3 5 6 6 6 6 8 8 8 7 6 7 7 7 7 7 8 8 8 9 11 10 9 8 6 5 6 5 8 5 5 6 4 7 9 11 8 13 12 11 9 8 12 11 8 9 6 4 5 5 6 5 6
3 3 4 6 6 6 7 7 8 7 7 6 7 7 7 7 7 7 9 8 9 11 13 9 7 7 4 5 5 5 5 5 6 6 8 8 11 7 10 10 10 10 9 10 10 8 7 6 6 6 6 6 6 6
3 3 4 5 6 6 7 7 7 7 6 6 7 7 7 7 7 7 7 7 7 10 12 10 7 5 5 4 5 5 6 6 8 9 9 9 7 9 8 9 11 10 11 13 13 9 8 7 6 5 6 6 6 7
3 4 4 5 6 6 7 7 7 7 6 6 6 7 7 7 7 8 10 7 6 8 12 13 7 6 5 5 5 5 6 7 8 9 8 7 5 8 11 12 9 8 8 8 8 6 6 6 5 5 6 7 7 7
3 4 4 4 5 6 6 7 6 7 6 6 7 7 7 7 8 10 10 8 7 7 12 13 9 6 6 5 4 5 4 6 7 8 8 8 8 7 10 12 9 9 9 7 5 6 7 7 7 5 7 7 7 8
3 3 4 4 5 6 6 6 6 7 6 6 8 8 8 7 7 9 7 8 7 10 10 13 10 9 6 7 8 4 6 6 6 7 7 8 7 6 11 9 10 9 9 8 6 6 6 6 6 7 7 8 9 10
3 3 3 4 5 5 6 6 7 7 6 8 9 8 7 8 10 8 6 7 7 9 13 12 11 11 6 8 8 7 4 9 6 9 9 8 9 12 10 11 11 10 10 9 7 6 6 7 7 8 8 9 10 11
3 3 3 4 5 5 6 6 6 6 7 8 9 10 11 8 5 5 8 10 11 10 10 12 8 10 9 10 9 9 6 9 12 9 8 9 10 9 9 10 10 10 8 7 7 7 7 7 8 8 10 10 10 11
3 3 3 4 5 5 6 6 6 7 9 10 11 10 9 7 8 9 11 12 12 13 11 10 9 11 7 10 11 8 9 7 12 11 11 10 11 10 9 10 9 8 7 6 5 5 6 7 8 8 10 10 11 12
3 3 3 4 5 5 6 6 7 9 10 10 9 8 8 9 10 13 13 11 12 13 10 9 9 7 7 7 9 8 9 9 14 6 10 12 10 9 10 10 9 8 7 7 5 6 6 6 7 8 9 11 11 11
3 3 4 4 5 5 6 6 7 8 8 8 10 11 11 11 15 15 15 13 12 10 9 9 10 8 8 8 10 9 11 11 6 8 13 11 10 9 10 10 10 9 8 7 6 5 6 6 7 8 9 10 10 11
3 4 4 5 5 5 6 7 7 8 8 10 12 14 13 14 12 11 11 12 11 10 10 9 9 9 8 9 10 12 8 7 10 12 13 10 10 10 10 10 10 10 8 7 7 6 6 7 7 8 9 9 10 11
3 4 4 5 5 5 6 7 7 8 10 11 11 14 13 10 9 10 10 11 10 9 9 10 8 8 9 11 9 10 12 14 11 13 11 10 10 9 10 10 10 10 9 8 7 7 6 7 7 7 8 9 9 11
4 4 5 5 5 5 6 7 9 9 9 11 11 12 11 11 12 11 11 11 9 9 8 8 10 11 12 11 16 17 14 14 12 10 9 9 10 9 10 9 10 9 9 8 7 7 6 6 7 7 8 9 9 10
5 6 5 5 6 6 7 9 10 11 12 12 12 10 10 10 11 11 10 10 7 10 11 9 13 16 10 12 16 13 13 11 8 9 9 9 9 10 9 9 9 9 10 9 8 7 7 7 7 7 9 9 9 9
7 5 5 6 7 8 9 8 10 11 13 11 12 10 10 9 10 10 9 9 9 9 9 11 9 12 13 15 14 12 10 9 8 9 8 8 9 9 9 9 9 9 10 9 9 7 7 7 8 8 7 9 9 10
6 6 6 7 8 9 11 11 9 12 11 10 9 9 9 9 8 8 8 8 7 7 9 10 12 11 11 10 12 11 10 10 9 8 8 8 7 8 9 9 9 9 9 9 10 9 8 7 8 8 7 8 10 10
6 6 7 7 6 9 11 11 8 10 12 11 9 10 10 10 9 9 9 9 9 9 11 11 11 10 9 10 9 9 8 7 7 9 9 8 7 7 8 9 9 9 10 10 9 10 10 8 8 8 8 7 9 10
7 7 7 7 9 9 9 10 10 10 10 10 9 10 10 10 10 10 10 9 10 11 11 9 10 9 8 8 7 7 8 8 8 9 8 8 7 7 7 8 8 9 10 11 11 11 10 10 10 9 8 7 6 8
8 7 9 9 10 10 10 9 10 9 9 9 10 10 11 11 11 11 10 11 11 10 8 9 9 8 9 9 8 8 9 8 7 7 8 8 8 8 8 8 8 9 10 10 11 11 11 10 9 10 9 8 6 6
8 8 9 9 12 11 12 8 11 10 12 11 10 11 11 11 10 10 11 10 9 8 8 8 8 8 8 8 9 9 9 8 7 8 7 8 8 7 7 7 7 8 9 9 10 10 10 11 10 9 9 8 6 6
7 10 11 12 11 13 10 11 9 10 10 11 12 13 12 11 10 11 11 10 10 9 9 8 8 9 8 9 9 9 9 7 7 8 8 8 8 8 7 7 7 7 8 8 8 9 10 10 10 9 9 10 10 9
12 13 12 14 11 12 13 13 12 12 13 12 13 12 12 10 12 12 12 10 10 10 9 8 8 8 9 9 9 9 9 8 8 8 8 8 8 7 7 6 7 6 7 8 9 9 10 10 9 9 10 10 11 11
14 13 13 13 13 13 13 14 13 13 12 13 12 10 10 11 13 13 10 9 9 9 8 8 8 8 9 8 9 9 9 7 6 8 8 8 8 8 8 8 8 7 7 7 9 10 9 9 9 10 10 11 11 11
15 15 12 9 10 11 12 11 11 11 13 13 12 12 12 14 13 11 9 8 8 7 7 7 7 8 8 8 8 8 7 7 8 8 7 6 7 7 8 8 8 8 7 6 7 9 10 10 9 10 10 10 10 11
13 13 14 12 12 10 12 12 12 13 12 10 10 13 13 12 12 10 9 8 7 7 7 7 6 7 7 7 7 7 7 7 7 7 6 6 6 6 7 7 6 9 7 6 7 7 9 10 10 10 10 10 10 10
13 11 11 13 12 11 11 12 12 10 8 9 11 11 12 12 11 10 9 8 7 7 8 8 8 7 7 7 6 6 6 6 6 8 8 7 7 7 7 7 7 6 6 6 8 9 8 9 9 9 9 9 9 10
13 10 12 12 13 13 11 9 10 9 9 9 10 11 11 11 10 8 8 8 8 8 7 7 7 7 7 7 7 7 5 5 5 6 7 8 8 6 6 7 6 6 6 6 6 6 8 7 7 7 9 9 10 10
11 11 12 12 12 10 10 9 9 9 10 10 9 10 12 11 10 9 8 7 7 7 7 7 7 6 6 6 5 6 7 5 6 6 6 6 6 6 7 6 6 6 6 6 6 7 7 7 7 8 9 10 10 11
12 12 12 13 12 10 10 10 10 11 11 11 12 11 11 11 12 10 9 7 7 7 8 6 6 5 4 5 5 5 7 5 5 6 7 7 7 7 7 6 6 6 6 6 6 7 7 8 9 9 10 11 11 11
12 12 11 11 12 12 11 11 12 13 12 12 12 12 12 11 13 10 7 6 5 5 5 5 5 4 5 5 5 6 6 6 8 10 10 10 11 10 8 7 7 6 7 7 7 8 9 9 10 10 11 11 12 13